Regional Weather Roundup
Issued by NWS

Home | Current Version | Previous Version | Graphics & Text | Print | Product List | Glossary On
Versions: 1 2 3 4 5 6 7 8 9 10 11 12 13 14 15 16 17 18 19 20 21 22 23 24 25 26 27 28 29 30 31 32 33 34 35 36 37 38 39 40 41 42 43 44 45 46 47 48 49 50
000
ASUS45 KBOU 151710
RWRCO

WEATHER ROUNDUP FOR COLORADO
NATIONAL WEATHER SERVICE DENVER/BOULDER CO
1000 AM MST FRI DEC 15 2017

NOTE: "FAIR" INDICATES FEW OR NO CLOUDS BELOW 12000 FEET WITH NO
SIGNIFICANT WEATHER AND/OR OBSTRUCTIONS TO VISIBILITY.

COZ001>005-013-030-031-151800-
...NORTHWEST COLORADO...

CITY           SKY/WX    TMP DP  RH WIND       PRES   REMARKS
CRAIG          FAIR      16  12  84 W5        30.32S WCI   9
HAYDEN         FAIR      22  12  65 E10       30.33S WCI  11
MEEKER         FAIR      26  14  60 CALM      30.32F
RABBIT EARS PA FAIR      21   9  58 W12G21    30.27R WCI   9
STEAMBOAT SPGS FAIR      18  12  80 CALM      30.32S
WALDEN         FAIR      21   5  49 S9        30.27R WCI  11
$$

COZ006>008-011-151800-
...WEST CENTRAL VALLEYS...

CITY           SKY/WX    TMP DP  RH WIND       PRES   REMARKS
GRAND JUNCTION FAIR      29  13  51 SE5       30.39S WCI  24
MONTROSE       FAIR      28  12  51 S5        30.40S WCI  23
EAGLE          FAIR      14   6  70 CALM      30.44S
RIFLE          FAIR      23  10  57 CALM      30.41S
DELTA          FAIR      29   8  41 CALM      30.40S
NUCLA          FAIR      28   0  29 CALM      30.40S
$$

COZ017>023-064>068-151800-
...SOUTHWEST COLORADO...

CITY           SKY/WX    TMP DP  RH WIND       PRES   REMARKS
DURANGO        FAIR      28  17  63 CALM      30.33S
CORTEZ         FAIR      32   1  26 E5        30.36R WCI  27
PAGOSA SPRINGS FAIR      30   4  33 CALM      30.33R
TELLURIDE      FAIR      33 -12  14 CALM      30.35R
WOLF CREEK PAS FAIR      28 -13  16 SW5       30.37S WCI  23
$$

COZ009-010-012-014-032>034-037-058>063-151800-
...CENTRAL COLORADO...

CITY           SKY/WX    TMP DP  RH WIND       PRES   REMARKS
ASPEN          FAIR      23   8  52 N3        30.32R
BUENA VISTA    FAIR      25   4  40 S3        30.23S
COPPER MTN     NOT AVBL
BERTHOUD PASS  FAIR      14   1  57 NW28G33   30.26R WCI  -6
COTTONWOOD PAS FAIR      36  -6  17 SE8       30.23R
GUNNISON       FAIR      16   6  65 CALM      30.40S
KREMMLING      FAIR      18   9  68 CALM      30.41S
LEADVILLE      FAIR      27  -1  30 NE7       30.27R WCI  19
MONARCH PASS   FAIR      16  -4  41 SW33G45   30.35R WCI  -5
SALIDA         FAIR      35   4  27 N12       30.30R WCI  26
SUNLIGHT       FAIR      23  -6  28 SW9       30.37R WCI  13
WILKERSON PASS FAIR      28  -6  22 N14G25    30.24R WCI  17
$$

COZ069>075-151800-
...SAN LUIS VALLEY/SANGRE DE CRISTO MOUNTAINS...

CITY           SKY/WX    TMP DP  RH WIND       PRES   REMARKS
ALAMOSA        FAIR      20   8  60 CALM      30.32R
DEL NORTE      FAIR      28   6  39 E3        30.31S
LA VETA PASS   FAIR      21   5  49 SW29G36     N/A  WCI   3
SAGUACHE       FAIR      28   7  40 SE5       30.32S WCI  23
$$

COZ035-036-038>040-151800-
...NORTHERN COLORADO FRONT RANGE...

CITY           SKY/WX    TMP DP  RH WIND       PRES   REMARKS
DENVER INTL AP FAIR      48   9  20 SW10      30.02R
DMNS CITY PARK NOT AVBL
AURORA         MOSUNNY   47   8  20 S13       30.03S
FRONT RANGE AP MOSUNNY   50  16  25 S10G18    30.03S
ERIE MUNI ARPT FAIR      40  25  56 CALM      30.05F
BOULDER MUN AP FAIR      43  27  52 CALM      30.00S
CENTENNIAL     FAIR      47  12  24 SW9       30.04R
BROOMFIELD     MOSUNNY   54   5  14 W15       30.03R
FORT COLLINS   FAIR      31  22  69 NE3       30.03R
LONGMONT       FAIR      37  22  55 NE3       30.03R
$$

COZ041-046-047-076>085-087-088-151800-
...PIKES PEAK/PALMER DIVIDE AND SOUTHERN FOOTHILLS...

CITY           SKY/WX    TMP DP  RH WIND       PRES   REMARKS
COLO. SPRINGS  FAIR      49  -1  12 NE3       30.09R
A. F. ACADEMY  FAIR      46   7  20 SW3       30.07F
SCHRIEVER AFB  FAIR      46  -3  13 CALM      30.09R
CHEYENNE MTN   FAIR      45   2  17 CALM      30.05R
ELLICOTT         N/A    N/A N/A N/A N3        30.07R
FALCON         FAIR      45   3  18 W8        30.10S
FORT CARSON    FAIR      40  20  44 N7        30.07R
LIMON          FAIR      39  22  50 CALM      30.06F
MONUMENT HILL  FAIR      41  12  30 SW7       30.09S
CANON CITY     FAIR      45   9  23 W14G21    30.11R
WALSENBURG     FAIR      48   5  17 W22G30    30.10F
TRINIDAD       FAIR      43  13  29 SW9       30.12S
$$

COZ042>045-048>051-090-091-151800-
...NORTHEAST COLORADO...

CITY           SKY/WX    TMP DP  RH WIND       PRES   REMARKS
GREELEY ARPT   FAIR      27  18  69 CALM      30.04S
AKRON          FAIR      38  15  39 W15       30.01S
BURLINGTON     FAIR      47  13  25 SW15G24   30.04F
WRAY           FAIR      43  19  39 W8        30.02S
YUMA           FAIR      43  12  28 W12       30.01S
STERLING       FAIR      30  21  69 S12       30.02S WCI  21
HOLYOKE        FAIR      46  19  34 W12       30.00R
FORT MORGAN    FAIR      28  22  78 W5        30.03F WCI  23
$$

COZ086-089-092>099-151800-
...SOUTHEAST COLORADO...

CITY           SKY/WX    TMP DP  RH WIND       PRES   REMARKS
PUEBLO         FAIR      30  24  78 CALM      30.09F
LA JUNTA       FAIR      35  23  61 W7        30.10F WCI  29
LAMAR          FAIR      32  25  75 W14       30.11S WCI  22
SPRINGFIELD      N/A     43  29  57 SW6       30.11F
$$



USA.gov is the U.S. government's official web portal to all federal, state and local government web resources and services.